Home > Weather > Maple Ridge > Past weeks

Flag for Canada Weather for the Past 2 Weeks in Maple Ridge, British Columbia, Canada

Now
47 °F

Cool.


Feels Like: 47 °F
Forecast: 41 / 59 °F
Wind: 1 mph from Northeast

Location: P. Meadows Coastal Station

Current Time: Feb 7, 2016 at 6:49:32 PM

Latest Report: Feb 7, 2016 at 5:00 PM


Visibility: N/A

Pressure: 30.58 "Hg

Humidity: 79%

Dew point: 41 °F

Location of Maple RidgeLocation

Historic Weather in Maple Ridge — Graph

°F

Maple Ridge Temperature Yesterday

Maximum temperature yesterday: 49 °F (at 3:00 PM)
Minimum temperature yesterday: 37 °F (at 10:00 PM)
Average temperature yesterday: 44 °F

High & Low Weather Summary for the Past Weeks

 TemperatureHumidityPressure
High56 °F (Jan 28, 2:00 AM)100% (Jan 23, 10:00 PM)30.62 "Hg (Jan 23, 10:00 PM)
Low33 °F (Jan 30, 2:00 AM)59% (Jan 28, 1:00 PM)29.60 "Hg (Jan 29, 11:00 AM)
Average43 °F90%30.11 "Hg
* Reported Jan 23 5:00 PM — Feb 7 5:00 PM, Maple Ridge, Weather by CustomWeather, © 2016

Note: Actual official high and low records may vary slightly from our data, if they occured in-between our weather recording intervals... More about our weather records

Advertising

Maple Ridge Weather History for the Previous 24 Hours

 ConditionsComfort  
Time TempWeatherWind HumidityBarometerVisibility
5:00 PM
Sun, Feb 7
47 °FCool.1 mph79%30.58 "HgN/A
4:00 PM48 °FCool.No wind70%30.58 "HgN/A
3:00 PM47 °FCool.1 mph75%30.58 "HgN/A
2:00 PM46 °FCool.3 mph82%30.59 "HgN/A
1:00 PM45 °FCool.2 mph85%30.60 "HgN/A
12:00 PM43 °FQuite cool.3 mph86%30.61 "HgN/A
11:00 AM41 °FQuite cool.2 mph90%30.62 "HgN/A
10:00 AM40 °FChilly.1 mph95%30.60 "HgN/A
9:00 AM38 °FChilly.1 mph97%30.58 "HgN/A
8:00 AM38 °FChilly.1 mph97%30.57 "HgN/A
7:00 AM36 °FChilly.2 mph99%30.56 "HgN/A
6:00 AM33 °FChilly.1 mph100%30.53 "HgN/A
5:00 AM34 °FChilly.No wind98%30.54 "HgN/A
4:00 AM36 °FChilly.No wind95%30.54 "HgN/A
3:00 AM38 °FChilly.2 mph94%30.55 "HgN/A
2:00 AM40 °FQuite cool.3 mph87%30.55 "HgN/A
1:00 AM38 °FChilly.2 mph97%30.53 "HgN/A
12:00 AM37 °FChilly.No wind97%30.53 "HgN/A
11:00 PM
Sat, Feb 6
37 °FChilly.1 mph96%30.53 "HgN/A
10:00 PM37 °FChilly.No wind95%30.53 "HgN/A
9:00 PM39 °FChilly.2 mph94%30.51 "HgN/A
8:00 PM40 °FQuite cool.2 mph93%30.48 "HgN/A
7:00 PM42 °FQuite cool.1 mph89%30.48 "HgN/A
6:00 PM44 °FQuite cool.2 mph81%30.48 "HgN/A
Weather by CustomWeather, © 2016

See weather overviewHow to use our weather pages